Content
SEND FEEDBACK

Daily
Averages
Monthly
Summary
United States of America

BOX ELDER, SOUTH DAKOTA


Home > North America > United States > South Dakota
Elevation: 3170 feet     Latitude: 44 09N     Longitude: 103 06W

WEATHER
 
SELECT A DAY
Number of Records: 204,184;   Date Range: 1/1/95 - 8/28/14
 
SHARE

PRINT THIS DATA

[ ← Previous Day ]
WEATHER ALMANAC - FEBRUARY 17, 2013
[ Next Day → ]
[ °C ]   °F
Weather ElementAverageHighLow
Temperature37.5 °F53.6 °F (12:55 pm)28.9 °F (4:55 am)
Dewpoint23.7 °F28.6 °F (2:55 pm)20.3 °F (6:55 am)
Humidity59.8 %80 % (10:44 pm)28 % (12:55 pm)
Barometer29.67 in29.78 in (10:44 pm)29.51 in (12:55 pm)
Wind Speed17.2 mph39.1 mph (3:55 pm)
Wind Gust47.2 mph (3:55 pm)
Weather ElementAverage
Visibility10 mi
Wind DirectionW (268 °)

Weather ElementTotal
Precipitation---
Heating Degree Days23.8 (Base 65)
Averaged from 25 records on February 17, 2013
WEATHER CONDITIONS BREAKOUT
WIND DIRECTION BREAKOUT
WEATHER BY HOUR - FEBRUARY 17, 2013
[ °C ]   °F
Local TimeTemperatureDewpointHumidityBarometerVisibilityWind DirectionWind SpeedGust SpeedPrecipitationEventsConditions
1:55 AM32.9 °F21.4 °F63 %29.75 in10.0 miCalmClear
2:55 AM32.5 °F21.0 °F63 %29.72 in10.0 miSW (230°)4.6 mphClear
3:55 AM29.7 °F21.0 °F70 %29.70 in10.0 miWSW (240°)8.1 mphClear
4:55 AM28.9 °F20.8 °F72 %29.68 in10.0 miWSW (250°)8.1 mphClear
5:55 AM30.6 °F20.8 °F67 %29.65 in10.0 miWest (260°)6.9 mphClear
6:55 AM29.5 °F20.3 °F69 %29.63 in10.0 miWest (280°)5.8 mphClear
7:55 AM34.3 °F22.3 °F61 %29.62 in10.0 miCalmClear
8:55 AM41.4 °F22.6 °F47 %29.60 in10.0 miWest (270°)6.9 mphPartly Cloudy
9:55 AM47.5 °F21.0 °F35 %29.56 in10.0 miWest (260°)5.8 mphClear
10:55 AM49.3 °F25.2 °F39 %29.55 in10.0 miNorth (10°)10.4 mphClear
11:55 AM51.8 °F22.5 °F32 %29.53 in10.0 miNorth (350°)21.9 mphClear
12:55 PM53.6 °F21.4 °F28 %29.51 in10.0 miNNW (340°)25.3 mph35.7 mphClear
1:55 PM50.7 °F26.6 °F39 %29.53 in10.0 miNNW (340°)32.2 mph38.0 mphClear
2:55 PM44.6 °F28.6 °F53 %29.58 in10.0 miNNW (340°)36.8 mph44.9 mphOvercast
3:55 PM41.5 °F27.5 °F57 %29.62 in10.0 miNW (320°)39.1 mph47.2 mphScattered Clouds
4:55 PM39.9 °F23.4 °F52 %29.68 in10.0 miNW (310°)21.9 mph32.2 mphClear
5:55 PM36.9 °F23.0 °F57 %29.71 in10.0 miWNW (300°)16.1 mphScattered Clouds
6:55 PM34.7 °F26.6 °F72 %29.75 in10.0 miNW (310°)21.9 mphMostly Cloudy
7:55 PM34.0 °F25.5 °F71 %29.75 in10.0 miNNW (340°)16.1 mphPartly Cloudy
8:55 PM32.9 °F25.3 °F74 %29.76 in10.0 miNNW (330°)18.4 mph28.8 mphClear
9:55 PM32.0 °F25.0 °F75 %29.76 in10.0 miNNW (330°)19.6 mph25.3 mphClear
10:34 PM32.0 °F24.8 °F75 %29.76 in10.0 miNW (320°)24.2 mph31.1 mphRainLight Rain
10:44 PM32.0 °F26.6 °F80 %29.78 in10.0 miNW (320°)20.7 mph29.9 mphScattered Clouds
10:55 PM31.8 °F24.8 °F75 %29.78 in10.0 miNW (320°)26.5 mph33.4 mph0.00 inPartly Cloudy
11:55 PM32.9 °F23.4 °F68 %29.76 in10.0 miNNW (330°)32.2 mph43.7 mphMostly Cloudy
Hourly data recorded from KRCA, located miles away from Box Elder, South Dakota







STORIES FROM OUR PARTNERS